Low Moor, IA

5:53 PM CST on January 23, 2017 (GMT -0600)
Clinton Municipal

Weather History for KCWI - September, 2012

Change the Weather History Date:

Friday, September 21, 2012

  Actual Average Record
Temperature  
Mean Temperature 50 °F -  
Max Temperature 57 °F 71 °F 87 °F (1986)
Min Temperature 42 °F 49 °F 34 °F (1991)
Degree Days  
Heating Degree Days 16    
Moisture  
Dew Point 45 °F    
Average Humidity 80    
Maximum Humidity 93    
Minimum Humidity 67    
Precipitation  
Precipitation 0.00 in - - ()
Sea Level Pressure  
Sea Level Pressure 29.87 in    
Wind  
Wind Speed 9 mph (East)    
Max Wind Speed 18 mph    
Max Gust Speed 22 mph    
Visibility 10 miles    
Events      
Averages and records for this station are not official NWS values.
T = Trace of Precipitation, MM = Missing Value Source: NWS Daily Summary

Daily Weather History Graph

Daily Weather History Graph

Search for Another Location

Airport or City:

Trip Planner

Search our weather history database for the weather conditions in past years. The results will help you decide how hot, cold, wet, or windy it might be!

Date:

Astronomy

Sep. 21, 2012 Rise Set
Actual Time 6:48 AM CDT 6:59 PM CDT
Civil Twilight 6:20 AM CDT 7:27 PM CDT
Nautical Twilight 5:47 AM CDT 7:59 PM CDT
Astronomical Twilight 5:14 AM CDT 8:32 PM CDT
Moon 1:15 PM CDT (9/21) 10:54 PM CDT (9/21)
Length of Visible Light 13h 06m
Length of Day
12h 11m
Waxing Crescent, 37% of the Moon is Illuminated
Sep 21
Waxing Crescent
Sep 22
First Quarter
Sep 29
Full
Oct 8
Last Quarter
Oct 15
New

Hourly Weather History & Observations

Time (CDT) Temp. Windchill Dew Point Humidity Pressure Visibility Wind Dir Wind Speed Gust Speed Precip Events Conditions
10:55 AM 55.4 °F - 46.4 °F 72% 29.95 in 10.0 mi NE 8.1 mph - N/A   Unknown
11:15 AM 55.4 °F - 44.6 °F 67% 29.94 in 10.0 mi East 4.6 mph - N/A   Partly Cloudy
11:35 AM 55.4 °F - 46.4 °F 72% 29.92 in 10.0 mi East 6.9 mph - N/A   Scattered Clouds
11:55 AM 53.6 °F - 46.4 °F 77% 29.92 in 10.0 mi East 9.2 mph - N/A   Partly Cloudy
12:15 PM 53.6 °F - 46.4 °F 77% 29.90 in 10.0 mi ENE 8.1 mph - N/A   Clear
12:35 PM 55.4 °F - 46.4 °F 72% 29.88 in 10.0 mi ENE 15.0 mph - N/A   Mostly Cloudy
12:55 PM 53.6 °F - 46.4 °F 77% 29.86 in 10.0 mi ENE 16.1 mph - N/A   Scattered Clouds
1:15 PM 55.4 °F - 46.4 °F 72% 29.85 in 10.0 mi ENE 18.4 mph 21.9 mph N/A   Scattered Clouds
1:35 PM 55.4 °F - 46.4 °F 72% 29.87 in 10.0 mi NE 13.8 mph - N/A   Clear
1:55 PM 57.2 °F - 48.2 °F 72% 29.85 in 10.0 mi ENE 18.4 mph - N/A   Scattered Clouds
2:15 PM 53.6 °F - 46.4 °F 77% 29.86 in 10.0 mi ENE 15.0 mph - N/A   Scattered Clouds
2:35 PM 53.6 °F - 46.4 °F 77% 29.84 in 10.0 mi ENE 15.0 mph 20.7 mph N/A   Scattered Clouds
2:55 PM 51.8 °F - 48.2 °F 88% 29.83 in 10.0 mi ENE 15.0 mph - N/A   Scattered Clouds
3:15 PM 53.6 °F - 48.2 °F 82% 29.83 in 10.0 mi ENE 12.7 mph - N/A   Partly Cloudy
3:35 PM 53.6 °F - 46.4 °F 77% 29.84 in 10.0 mi NE 16.1 mph - N/A   Partly Cloudy
3:55 PM 55.4 °F - 48.2 °F 77% 29.84 in 10.0 mi ENE 16.1 mph - N/A   Scattered Clouds
4:15 PM 55.4 °F - 46.4 °F 72% 29.84 in 10.0 mi ENE 11.5 mph - N/A   Mostly Cloudy
4:35 PM 53.6 °F - 46.4 °F 77% 29.83 in 10.0 mi ENE 12.7 mph - N/A   Scattered Clouds
4:55 PM 55.4 °F - 48.2 °F 77% 29.83 in 10.0 mi NE 10.4 mph - N/A   Partly Cloudy
5:15 PM 55.4 °F - 46.4 °F 72% 29.84 in 10.0 mi ENE 10.4 mph - N/A   Partly Cloudy
5:35 PM 55.4 °F - 46.4 °F 72% 29.84 in 10.0 mi East 6.9 mph - N/A   Clear
5:55 PM 55.4 °F - 46.4 °F 72% 29.85 in 10.0 mi ESE 5.8 mph - N/A   Clear
6:15 PM 55.4 °F - 46.4 °F 72% 29.85 in 10.0 mi SSE 5.8 mph - N/A   Clear
6:35 PM 53.6 °F - 46.4 °F 77% 29.86 in 10.0 mi Calm Calm - N/A   Clear
6:55 PM 51.8 °F - 44.6 °F 76% 29.86 in 10.0 mi Calm Calm - N/A   Clear
7:15 PM 50.0 °F - 44.6 °F 82% 29.86 in 10.0 mi Calm Calm - N/A   Clear
7:35 PM 48.2 °F - 42.8 °F 82% 29.88 in 10.0 mi Calm Calm - N/A   Clear
7:55 PM 48.2 °F - 44.6 °F 87% 29.88 in 10.0 mi SW 3.5 mph - N/A   Clear
8:15 PM 48.2 °F - 44.6 °F 87% 29.88 in 10.0 mi WSW 3.5 mph - N/A   Clear
8:35 PM 46.4 °F 43.5 °F 42.8 °F 87% 29.88 in 10.0 mi WSW 5.8 mph - N/A   Clear
8:55 PM 44.6 °F 41.4 °F 41.0 °F 87% 29.88 in 8.0 mi SW 5.8 mph - N/A   Clear
9:15 PM 44.6 °F 40.7 °F 42.8 °F 93% 29.87 in 10.0 mi WSW 6.9 mph - N/A   Clear
9:35 PM 44.6 °F 41.4 °F 41.0 °F 87% 29.88 in 10.0 mi WSW 5.8 mph - N/A   Clear
9:55 PM 44.6 °F 41.4 °F 41.0 °F 87% 29.88 in 10.0 mi WSW 5.8 mph - N/A   Scattered Clouds
10:15 PM 44.6 °F 41.4 °F 42.8 °F 93% 29.87 in 10.0 mi SW 5.8 mph - N/A   Scattered Clouds
10:35 PM 42.8 °F 39.3 °F 41.0 °F 93% 29.87 in 10.0 mi SW 5.8 mph - N/A   Clear
10:55 PM 42.8 °F 39.3 °F 41.0 °F 93% 29.87 in 10.0 mi SW 5.8 mph - N/A   Scattered Clouds
11:15 PM 46.4 °F 43.5 °F 42.8 °F 87% 29.87 in 10.0 mi SW 5.8 mph - N/A   Mostly Cloudy
11:35 PM 46.4 °F 44.3 °F 44.6 °F 93% 29.87 in 10.0 mi SW 4.6 mph - N/A   Mostly Cloudy
11:55 PM 46.4 °F 42.4 °F 44.6 °F 93% 29.89 in 9.0 mi North 8.1 mph - N/A   Mostly Cloudy